Regional Weather Roundup
Issued by NWS Kansas City/Pleasant Hill, MO

Home | Current Version | Previous Version | Graphics & Text | Print | Product List | Glossary Off
Versions: 1 2 3 4 5 6 7 8 9 10 11 12 13 14 15 16 17 18 19 20 21 22 23 24 25 26 27

000
ASUS43 KEAX 222210
RWREAX

WEATHER ROUNDUP FOR EASTERN KANSAS AND NORTHWEST MISSOURI
NATIONAL WEATHER SERVICE KANSAS CITY/PLEASANT HILL MO
500 PM CDT SUN OCT 22 2017

KSZ040-057-103>105-MOZ028-029-037-043-222300-
...KANSAS CITY METROPOLITAN AREA...

CITY           SKY/WX    TMP DP  RH WIND       PRES   REMARKS
K.C. INTL      MOSUNNY   65  38  36 VRB3      30.09F
K.C. DOWNTOWN  SUNNY     66  37  34 E5        30.09S
LEES SUMMIT    MOSUNNY   64  38  38 N7        30.10F
OLATHE - IXD   SUNNY     64  40  41 N3        30.10F
OLATHE - OJC   SUNNY     63  37  38 CALM      30.10S
LAWRENCE       SUNNY     68  35  29 CALM      30.09S

$$

MOZ001>008-011>017-020>025-030>033-038>040-044>046-053-054-222300-
...NORTHERN AND CENTRAL MISSOURI...

CITY           SKY/WX    TMP DP  RH WIND       PRES   REMARKS
ST. JOSEPH     SUNNY     68  32  26 W3        30.08S HAZE
MOSBY          PTCLDY    64  34  32 N3        30.10S
WARRENSBURG    CLOUDY    59  46  63 CALM      30.11R
WHITEMAN AFB   PTSUNNY   58  51  78 CALM      30.07S
CLINTON        CLOUDY    57  48  72 MISG      30.12S
SEDALIA        CLOUDY    58  51  78 CALM      30.12S
WARSAW         NOT AVBL
CHILLICOTHE      N/A     60  49  66 CALM      30.10F
KIRKSVILLE     CLOUDY    57  49  74 N5        30.09F

$$

MOZ041-047>049-056>058-063>065-088>090-097-222300-
...EASTERN AND SOUTHERN MISSOURI...

CITY           SKY/WX    TMP DP  RH WIND       PRES   REMARKS
ST. LOUIS INTL CLOUDY    56  51  84 N9        30.04F
SPIRIT OF STL  CLOUDY    57  50  77 N12       30.03F
COLUMBIA       CLOUDY    54  51  90 NW7       30.10S
JEFFERSON CITY LGT RAIN  54  50  86 W5        30.10F
ROLLA          RAIN      50  50 100 NW10      30.09S FOG
OSAGE BEACH    LGT RAIN  52  51  97 CALM      30.12F
SPRINGFIELD    CLOUDY    52  50  93 N8        30.10F
BRANSON        LGT RAIN  50  48  93 NW10      30.11F
JOPLIN         SUNNY     63  44  50 N7        30.11F
WEST PLAINS    RAIN      53  51  93 N8        30.06S FOG

$$

IAZ060-094-KSZ022-034>040-054-083-096-NEZ052-066-093-222300-
...KANSAS...SOUTHEAST NEBRASKA AND IOWA...

CITY           SKY/WX    TMP DP  RH WIND       PRES   REMARKS
TOPEKA         SUNNY     68  36  30 SW3       30.09S
MANHATTAN      SUNNY     70  28  21 W8        30.07F
EMPORIA        SUNNY     68  28  22 N6        30.11S
CHANUTE        SUNNY     67  36  31 NW12      30.12R
WICHITA        MOSUNNY   69  26  20 W3        30.10F
OMAHA          MOSUNNY   69  28  21 S10       30.01F
LINCOLN        SUNNY     70  23  17 SW15G22   30.02F
FALLS CITY     SUNNY     67  35  30 SW6       30.06F HAZE
LAMONI         CLOUDY    63  39  41 CALM      30.07S
DES MOINES     CLOUDY    67  32  27 N7        30.04S

$$





USA.gov is the U.S. government's official web portal to all federal, state and local government web resources and services.